Yulee Middle School and High Sch FL US WEATHERSTEM current weather conditions

sailwx.info

Wind from 022 at 1 knots gusting 5

Air temperature 14.4° C
Dewpoint 13.2° C

Last reported at 2019-Dec-08 02:00 UTC.
Time now 2019-Dec-08 03:09 UTC

Location: N 30°37' W 081°35'.
View on Google Maps.

See reports from other nearby stations

  
Tides and Currents Weather Stations Pressure Air Temp Water Temp Dewpoint Dewpoint Depression Visibility Wind Speed Wind Dir Waves Ship Positions
date/time (UTC)wind fromknots sea level pressurealtimeterstation pressurevisibilityair tempwater tempwave heightnotes
2019-Dec-08 02:00 022 1 gusting 5 14.4
2019-Dec-08 01:50 057 1 gusting 3 14.4
2019-Dec-08 01:40 018 2 gusting 5 14.4
2019-Dec-08 01:30 360 2 gusting 4 14.5
2019-Dec-08 01:20 019 0 gusting 5 14.6
2019-Dec-08 01:10 012 6 gusting 6 14.6
2019-Dec-08 01:00 019 1 gusting 7 14.7
2019-Dec-08 00:50 036 3 gusting 7 14.6
2019-Dec-08 00:40 074 3 gusting 6 14.7
2019-Dec-08 00:30 034 0 gusting 7 14.7
2019-Dec-08 00:20 023 2 gusting 5 14.7
2019-Dec-08 00:10 029 1 gusting 4 14.8
2019-Dec-08 00:00 005 3 gusting 6 14.9
2019-Dec-07 23:50 009 1 gusting 7 15.0
2019-Dec-07 23:40 028 1 gusting 6 15.1
2019-Dec-07 23:30 017 3 gusting 4 15.1
2019-Dec-07 23:20 031 1 gusting 5 15.2
2019-Dec-07 23:10 017 2 gusting 6 15.2
2019-Dec-07 23:00 026 6 gusting 6 15.3
2019-Dec-07 22:50 036 4 gusting 6 15.4
2019-Dec-07 22:40 027 3 gusting 6 15.6
2019-Dec-07 22:30 032 1 gusting 6 15.7
2019-Dec-07 22:20 035 5 gusting 7 15.8
2019-Dec-07 22:10 005 3 gusting 8 15.9
2019-Dec-07 22:00 026 4 gusting 6 16.1
2019-Dec-07 21:50 036 3 gusting 11 16.2
2019-Dec-07 21:40 032 1 gusting 6 16.3
2019-Dec-07 21:30 040 3 gusting 7 16.3
2019-Dec-07 21:20 026 2 gusting 5 16.4
2019-Dec-07 21:10 017 2 gusting 6 16.4
2019-Dec-07 21:00 060 1 gusting 9 16.7
2019-Dec-07 20:50 037 2 gusting 7 16.9
2019-Dec-07 20:40 034 7 gusting 13 17.1
2019-Dec-07 20:30 084 11 gusting 11 17.0
2019-Dec-07 20:20 030 2 gusting 12 17.1
2019-Dec-07 20:10 063 5 gusting 10 17.3
2019-Dec-07 20:00 009 4 gusting 11 17.6
2019-Dec-07 19:50 045 2 gusting 8 17.8
2019-Dec-07 19:40 078 2 gusting 10 17.8
2019-Dec-07 19:30 067 3 gusting 12 18.1
2019-Dec-07 19:20 065 4 gusting 11 18.5
2019-Dec-07 19:10 015 4 gusting 11 18.9
2019-Dec-07 19:00 036 3 gusting 11 18.9
2019-Dec-07 18:50 059 2 gusting 10 18.8
2019-Dec-07 18:40 065 7 gusting 8 18.8
2019-Dec-07 18:30 053 3 gusting 7 19.0
2019-Dec-07 18:20 063 3 gusting 9 19.1
2019-Dec-07 18:10 055 2 gusting 8 19.1
2019-Dec-07 18:00 093 5 gusting 9 19.2
2019-Dec-07 17:50 088 9 gusting 10 19.3
2019-Dec-07 17:40 081 1 gusting 9 19.3
2019-Dec-07 17:30 109 7 gusting 10 19.3
2019-Dec-07 17:20 101 3 gusting 10 19.4
2019-Dec-07 17:10 107 5 gusting 8 19.3
2019-Dec-07 17:00 057 2 gusting 9 19.2
2019-Dec-07 16:50 044 3 gusting 9 19.1
2019-Dec-07 16:40 045 5 gusting 8 19.0
2019-Dec-07 16:30 013 2 gusting 11 18.7
2019-Dec-07 16:20 020 6 gusting 9 18.8
2019-Dec-07 16:10 126 3 gusting 8 19.1
2019-Dec-07 16:00 086 2 gusting 7 19.2
2019-Dec-07 15:50 032 2 gusting 6 19.2
2019-Dec-07 15:40 051 1 gusting 5 19.0
2019-Dec-07 15:30 061 2 gusting 7 18.8
2019-Dec-07 15:20 046 7 gusting 9 18.6
2019-Dec-07 15:10 005 0 gusting 7 18.1
2019-Dec-07 15:00 049 1 gusting 5 17.2
2019-Dec-07 14:50 094 16.2
2019-Dec-07 14:40 081 1 gusting 3 14.9
2019-Dec-07 14:30 089 14.4
2019-Dec-07 14:20 089 0 gusting 2 13.8
2019-Dec-07 14:10 090 12.9
2019-Dec-07 14:00 090 0 gusting 1 12.1
2019-Dec-07 13:50 090 0 gusting 2 11.7
2019-Dec-07 13:40 090 0 gusting 2 11.2
2019-Dec-07 13:30 10.6
2019-Dec-07 13:20 090 1 gusting 1 10.4
2019-Dec-07 13:10 346 0 gusting 1 10.2
2019-Dec-07 13:00 9.9
2019-Dec-07 12:50 9.3
2019-Dec-07 12:40 8.7
2019-Dec-07 12:30 8.3
2019-Dec-07 12:20 7.8
2019-Dec-07 12:10 7.6
2019-Dec-07 12:00 7.4
2019-Dec-07 11:50 7.3
2019-Dec-07 11:40 7.3
2019-Dec-07 11:30 7.3
2019-Dec-07 11:20 7.3
2019-Dec-07 11:10 7.3
2019-Dec-07 11:00 7.3
2019-Dec-07 10:50 346 0 gusting 0 7.3
2019-Dec-07 10:40 7.4
2019-Dec-07 10:30 7.5
2019-Dec-07 10:20 346 0 gusting 0 7.6
2019-Dec-07 10:10 7.7
2019-Dec-07 10:00 7.8
2019-Dec-07 09:50 7.9
2019-Dec-07 09:40 7.9
2019-Dec-07 09:30 7.9
2019-Dec-07 09:20 8.0
2019-Dec-07 09:10 8.1
2019-Dec-07 09:00 8.2
2019-Dec-07 08:50 8.1
2019-Dec-07 08:40 8.2
2019-Dec-07 08:30 8.2
2019-Dec-07 08:20 8.2
2019-Dec-07 08:10 8.2
2019-Dec-07 08:00 8.2
2019-Dec-07 07:50 8.3
2019-Dec-07 07:40 8.4
2019-Dec-07 07:30 8.5
2019-Dec-07 07:20 8.6
2019-Dec-07 07:10 8.7
2019-Dec-07 07:00 8.8
2019-Dec-07 06:50 8.8
2019-Dec-07 06:40 8.9
2019-Dec-07 06:30 9.0
2019-Dec-07 06:20 9.1
2019-Dec-07 06:10 9.2
2019-Dec-07 06:00 9.2
2019-Dec-07 05:50 9.4
2019-Dec-07 05:40 9.5
2019-Dec-07 05:30 9.7
2019-Dec-07 05:20 9.7
2019-Dec-07 05:10 346 0 gusting 0 9.8
2019-Dec-07 05:00 10.0
2019-Dec-07 04:50 10.2
2019-Dec-07 04:40 10.3
2019-Dec-07 04:30 10.5
2019-Dec-07 04:20 346 0 gusting 0 10.8
2019-Dec-07 04:10 11.0
2019-Dec-07 04:00 11.1
2019-Dec-07 03:50 11.4
2019-Dec-07 03:40 11.6
2019-Dec-07 03:30 346 0 gusting 0 11.7
2019-Dec-07 03:20 346 0 gusting 0 11.7
2019-Dec-07 03:10 11.8
2019-Dec-07 03:00 11.8
2019-Dec-07 02:50 11.7
2019-Dec-07 02:40 11.7
2019-Dec-07 02:30 11.7
2019-Dec-07 02:20 346 0 gusting 0 11.7
2019-Dec-07 02:10 11.7
2019-Dec-07 02:00 11.7
2019-Dec-07 01:50 346 0 gusting 0 11.8
2019-Dec-07 01:40 346 0 gusting 0 12.0
2019-Dec-07 01:30 12.3
2019-Dec-07 01:20 346 0 gusting 0 12.5
2019-Dec-07 01:10 12.7
2019-Dec-07 01:00 13.1
2019-Dec-07 00:50 13.3
2019-Dec-07 00:40 13.6
2019-Dec-07 00:30 13.9
2019-Dec-07 00:20 14.3
2019-Dec-07 00:10 14.7
2019-Dec-07 00:00 15.2
2019-Dec-06 23:50 346 0 gusting 0 15.8
2019-Dec-06 23:40 16.2
2019-Dec-06 23:30 17.0
2019-Dec-06 23:20 17.6
2019-Dec-06 23:10 17.9
2019-Dec-06 23:00 346 0 gusting 0 18.4
2019-Dec-06 22:50 19.0
2019-Dec-06 22:40 346 0 gusting 1 19.5
2019-Dec-06 22:30 346 1 gusting 1 20.1
2019-Dec-06 22:20 20.3
2019-Dec-06 22:10 346 0 gusting 1 20.4
2019-Dec-06 22:00 346 0 gusting 2 20.6
2019-Dec-06 21:50 346 2 gusting 2 20.7
2019-Dec-06 21:40 346 0 gusting 3 21.0
2019-Dec-06 21:30 346 2 gusting 4 21.2
2019-Dec-06 21:20 328 1 gusting 4 21.2
2019-Dec-06 21:10 330 1 gusting 3 21.3
2019-Dec-06 21:00 317 0 gusting 3 21.5
2019-Dec-06 20:50 315 1 gusting 4 21.7
2019-Dec-06 20:40 320 1 gusting 5 21.9
2019-Dec-06 20:30 250 3 gusting 6 21.9
2019-Dec-06 20:20 267 5 gusting 8 22.0
2019-Dec-06 20:10 252 6 gusting 8 22.1
2019-Dec-06 20:00 256 3 gusting 8 22.2
2019-Dec-06 19:50 249 6 gusting 9 22.3
2019-Dec-06 19:40 269 7 gusting 9 22.6
2019-Dec-06 19:30 292 4 gusting 8 22.3
2019-Dec-06 19:20 273 5 gusting 7 22.1
2019-Dec-06 19:10 247 3 gusting 8 21.9
2019-Dec-06 19:00 236 5 gusting 9 22.0
2019-Dec-06 18:50 238 7 gusting 13 22.3
2019-Dec-06 18:40 240 5 gusting 10 22.2
2019-Dec-06 18:30 235 7 gusting 9 22.2
2019-Dec-06 18:20 264 2 gusting 10 22.1
2019-Dec-06 18:10 269 7 gusting 9 22.2
2019-Dec-06 18:00 222 6 gusting 10 21.9
2019-Dec-06 17:50 234 6 gusting 9 21.8
2019-Dec-06 17:40 260 5 gusting 7 21.6
2019-Dec-06 17:30 253 3 gusting 8 21.4
2019-Dec-06 17:20 253 3 gusting 6 20.8
2019-Dec-06 17:10 253 3 gusting 7 20.6
2019-Dec-06 17:00 266 6 gusting 7 20.3
2019-Dec-06 16:50 273 3 gusting 7 20.3
2019-Dec-06 16:40 278 1 gusting 9 20.1
2019-Dec-06 16:30 244 4 gusting 9 19.9
2019-Dec-06 16:20 241 5 gusting 7 19.6
2019-Dec-06 16:10 269 2 gusting 6 19.6
2019-Dec-06 16:00 303 3 gusting 3 19.4
2019-Dec-06 15:50 333 0 gusting 1 18.7
2019-Dec-06 15:40 333 0 gusting 2 18.2
2019-Dec-06 15:30 333 0 gusting 1 17.3
2019-Dec-06 15:20 316 0 gusting 3 16.7
2019-Dec-06 15:10 316 0 gusting 1 15.9
2019-Dec-06 15:00 14.9
2019-Dec-06 14:50 316 1 gusting 3 14.2
2019-Dec-06 14:40 325 2 gusting 3 13.4
2019-Dec-06 14:30 330 1 gusting 3 12.7
2019-Dec-06 14:20 333 1 gusting 2 11.7
2019-Dec-06 14:10 342 1 gusting 2 10.7
2019-Dec-06 14:00 342 1 gusting 2 9.9
2019-Dec-06 13:50 9.3
2019-Dec-06 13:40 277 0 gusting 2 8.6
2019-Dec-06 13:30 277 1 gusting 4 8.0
2019-Dec-06 13:20 286 1 gusting 2 7.5
2019-Dec-06 13:10 085 0 gusting 1 7.0
2019-Dec-06 13:00 085 0 gusting 1 6.3
2019-Dec-06 12:50 085 0 gusting 1 5.9
2019-Dec-06 12:40 5.5
2019-Dec-06 12:30 5.4
2019-Dec-06 12:20 5.3
2019-Dec-06 12:10 5.3
2019-Dec-06 12:00 5.3
2019-Dec-06 11:50 5.4
2019-Dec-06 11:40 085 0 gusting 0 5.3
2019-Dec-06 11:30 5.2
2019-Dec-06 11:20 5.3
2019-Dec-06 11:10 5.3
2019-Dec-06 11:00 5.2
2019-Dec-06 10:40 5.2
2019-Dec-06 10:30 5.2
2019-Dec-06 10:20 5.2
2019-Dec-06 10:10 5.2
2019-Dec-06 10:00 5.2
2019-Dec-06 09:50 5.3
2019-Dec-06 09:30 5.3
2019-Dec-06 09:20 5.4
2019-Dec-06 09:10 5.4
2019-Dec-06 09:00 5.6
2019-Dec-06 08:50 5.6
2019-Dec-06 08:40 5.6
2019-Dec-06 08:30 5.6
2019-Dec-06 08:20 5.6
2019-Dec-06 08:10 5.7
2019-Dec-06 08:00 5.7
2019-Dec-06 07:50 5.7
2019-Dec-06 07:40 5.8
2019-Dec-06 07:30 5.8
2019-Dec-06 07:20 5.9
2019-Dec-06 07:10 5.9
2019-Dec-06 07:00 085 6.0
2019-Dec-06 06:50 6.1
2019-Dec-06 06:40 6.1
2019-Dec-06 06:30 6.1
2019-Dec-06 06:20 6.0
2019-Dec-06 06:10 6.0
2019-Dec-06 06:00 6.0
2019-Dec-06 05:50 6.0
2019-Dec-06 05:40 6.1
2019-Dec-06 05:30 6.1
2019-Dec-06 05:20 6.1
2019-Dec-06 05:10 6.2
2019-Dec-06 05:00 6.2
2019-Dec-06 04:50 6.2
2019-Dec-06 04:40 6.3
2019-Dec-06 04:30 085 0 gusting 0 6.3
2019-Dec-06 04:20 6.4
2019-Dec-06 04:10 6.3
2019-Dec-06 04:00 6.4
2019-Dec-06 03:50 6.4
2019-Dec-06 03:40 6.6
2019-Dec-06 03:30 6.7
2019-Dec-06 03:20 6.7
2019-Dec-06 03:10 6.8
2019-Dec-06 03:00 6.8